TimeEST,TemperatureF,Dew PointF,Humidity,Sea Level PressureIn,VisibilityMPH,Wind Direction,Wind SpeedMPH,Gust SpeedMPH,PrecipitationIn,Events,Conditions,WindDirDegrees,DateUTC
12:15 AM,28.4,28.4,100,30.01,10.0,West,12.7,-,N/A,,Clear,260,2013-12-10 05:15:00
12:35 AM,28.4,28.4,100,30.00,10.0,West,16.1,-,N/A,,Clear,270,2013-12-10 05:35:00
12:55 AM,28.4,28.4,100,30.00,10.0,West,16.1,-,N/A,,Scattered Clouds,270,2013-12-10 05:55:00
1:15 AM,28.4,28.4,100,30.00,10.0,West,17.3,-,N/A,,Mostly Cloudy,280,2013-12-10 06:15:00
1:35 AM,28.4,28.4,100,29.97,10.0,West,13.8,-,N/A,,Mostly Cloudy,280,2013-12-10 06:35:00
1:55 AM,28.4,28.4,100,29.98,10.0,WNW,13.8,-,N/A,,Scattered Clouds,290,2013-12-10 06:55:00
2:15 AM,28.4,28.4,100,30.00,10.0,West,16.1,-,N/A,,Mostly Cloudy,280,2013-12-10 07:15:00
2:35 AM,28.4,28.4,100,29.96,10.0,West,13.8,-,N/A,,Overcast,280,2013-12-10 07:35:00
2:55 AM,30.2,26.6,86,30.02,10.0,West,18.4,-,N/A,,Overcast,270,2013-12-10 07:55:00
3:15 AM,28.4,26.6,93,29.98,10.0,West,13.8,-,N/A,,Overcast,270,2013-12-10 08:15:00
3:35 AM,30.2,24.8,80,29.99,10.0,West,15.0,-,N/A,,Overcast,270,2013-12-10 08:35:00
3:55 AM,28.4,26.6,93,29.98,3.0,West,16.1,-,N/A,Snow,Light Snow,280,2013-12-10 08:55:00
4:15 AM,28.4,26.6,93,29.95,2.0,West,19.6,-,N/A,Snow,Light Snow,280,2013-12-10 09:15:00
4:35 AM,28.4,28.4,100,29.94,5.0,WNW,18.4,-,0.01,,Overcast,290,2013-12-10 09:35:00
5:35 AM,28.4,28.4,100,29.95,2.5,West,6.9,-,0.04,,Overcast,280,2013-12-10 10:35:00
5:37 AM,28.4,28.4,100,29.95,2.5,West,5.8,-,0.05,,Overcast,270,2013-12-10 10:37:00
5:55 AM,28.4,28.4,100,29.95,2.5,West,8.1,-,0.03,,Overcast,280,2013-12-10 10:55:00
6:15 AM,28.4,28.4,100,29.92,0.5,WNW,3.5,-,0.04,,Overcast,300,2013-12-10 11:15:00
6:35 AM,28.4,28.4,100,29.94,1.2,WNW,5.8,-,0.07,,Overcast,290,2013-12-10 11:35:00
6:55 AM,28.4,28.4,100,29.93,0.2,NW,4.6,-,0.01,Snow,Light Snow,310,2013-12-10 11:55:00
7:15 AM,28.4,28.4,100,29.93,0.2,WNW,3.5,-,0.03,Snow,Light Snow,300,2013-12-10 12:15:00
7:35 AM,28.4,28.4,100,29.93,0.2,WNW,6.9,-,0.04,,Overcast,290,2013-12-10 12:35:00
7:55 AM,28.4,28.4,100,29.90,0.2,West,5.8,-,N/A,,Overcast,280,2013-12-10 12:55:00
8:15 AM,28.4,28.4,100,29.91,0.2,West,5.8,-,0.01,Snow,Light Snow,260,2013-12-10 13:15:00
8:35 AM,28.4,28.4,100,29.90,0.2,West,4.6,-,0.01,Snow,Light Snow,280,2013-12-10 13:35:00
8:55 AM,28.4,28.4,100,29.91,0.2,West,6.9,-,N/A,Snow,Light Snow,270,2013-12-10 13:55:00
9:15 AM,28.4,28.4,100,29.92,0.2,West,13.8,-,N/A,Snow,Light Snow,280,2013-12-10 14:15:00
9:35 AM,28.4,28.4,100,29.91,0.2,West,12.7,-,N/A,Snow,Snow,280,2013-12-10 14:35:00
9:55 AM,26.6,26.6,100,29.91,0.2,West,13.8,19.6,N/A,Snow,Light Snow,280,2013-12-10 14:55:00
10:15 AM,26.6,26.6,100,29.92,0.2,WNW,11.5,16.1,N/A,Snow,Light Snow,290,2013-12-10 15:15:00
10:35 AM,28.4,28.4,100,29.93,0.2,West,12.7,21.9,N/A,Fog,Light Freezing Fog,280,2013-12-10 15:35:00
10:55 AM,26.6,26.6,100,29.93,0.2,West,16.1,-,N/A,Fog,Light Freezing Fog,270,2013-12-10 15:55:00
11:15 AM,26.6,26.6,100,29.94,0.2,West,13.8,-,N/A,Fog,Light Freezing Fog,280,2013-12-10 16:15:00
11:35 AM,26.6,26.6,100,29.95,0.2,West,15.0,-,N/A,Snow,Light Snow,270,2013-12-10 16:35:00
11:55 AM,26.6,26.6,100,29.94,0.8,West,15.0,19.6,N/A,,Overcast,280,2013-12-10 16:55:00
12:35 PM,24.8,24.8,100,29.95,7.0,West,13.8,19.6,N/A,,Overcast,280,2013-12-10 17:35:00
12:55 PM,24.8,24.8,100,29.96,10.0,West,12.7,-,N/A,,Overcast,280,2013-12-10 17:55:00
1:15 PM,23.0,23.0,100,29.94,10.0,West,13.8,19.6,N/A,,Overcast,280,2013-12-10 18:15:00
1:35 PM,23.0,23.0,100,29.94,10.0,West,19.6,27.6,N/A,,Mostly Cloudy,280,2013-12-10 18:35:00
1:55 PM,23.0,23.0,100,29.96,10.0,West,17.3,28.8,N/A,,Mostly Cloudy,280,2013-12-10 18:55:00
2:15 PM,21.2,21.2,100,29.96,10.0,WNW,15.0,25.3,N/A,,Overcast,290,2013-12-10 19:15:00
2:35 PM,21.2,21.2,100,29.97,10.0,WNW,20.7,29.9,N/A,,Overcast,290,2013-12-10 19:35:00
2:55 PM,21.2,21.2,100,29.97,10.0,West,16.1,26.5,N/A,,Overcast,280,2013-12-10 19:55:00
3:15 PM,21.2,19.4,93,29.98,10.0,West,16.1,26.5,N/A,,Overcast,270,2013-12-10 20:15:00
3:35 PM,21.2,19.4,93,29.99,10.0,West,18.4,28.8,N/A,,Overcast,280,2013-12-10 20:35:00
3:55 PM,21.2,17.6,86,29.98,10.0,West,19.6,28.8,N/A,,Mostly Cloudy,280,2013-12-10 20:55:00
4:15 PM,21.2,15.8,80,29.99,10.0,West,23.0,34.5,N/A,,Scattered Clouds,280,2013-12-10 21:15:00
4:35 PM,19.4,15.8,86,30.00,10.0,West,20.7,29.9,N/A,,Scattered Clouds,280,2013-12-10 21:35:00
4:55 PM,19.4,15.8,86,30.00,10.0,West,18.4,29.9,N/A,,Mostly Cloudy,280,2013-12-10 21:55:00
5:15 PM,19.4,15.8,86,30.01,10.0,West,20.7,27.6,N/A,,Scattered Clouds,280,2013-12-10 22:15:00
5:35 PM,19.4,15.8,86,30.02,10.0,West,15.0,24.2,N/A,,Clear,280,2013-12-10 22:35:00
5:55 PM,19.4,14.0,80,30.03,10.0,West,20.7,26.5,N/A,,Clear,280,2013-12-10 22:55:00
6:15 PM,17.6,12.2,79,30.03,10.0,West,19.6,28.8,N/A,,Clear,280,2013-12-10 23:15:00
6:35 PM,17.6,14.0,86,30.04,10.0,West,18.4,27.6,N/A,,Clear,280,2013-12-10 23:35:00
6:55 PM,17.6,14.0,86,30.05,10.0,West,20.7,28.8,N/A,,Clear,280,2013-12-10 23:55:00
7:15 PM,17.6,14.0,86,30.05,10.0,West,21.9,28.8,N/A,,Clear,280,2013-12-11 00:15:00
7:35 PM,17.6,12.2,79,30.05,10.0,West,24.2,31.1,N/A,,Clear,280,2013-12-11 00:35:00
7:55 PM,17.6,14.0,86,30.06,10.0,West,21.9,29.9,N/A,,Clear,270,2013-12-11 00:55:00
8:15 PM,17.6,14.0,86,30.07,10.0,West,23.0,31.1,N/A,,Clear,280,2013-12-11 01:15:00
8:35 PM,17.6,14.0,86,30.08,10.0,West,21.9,29.9,N/A,,Clear,280,2013-12-11 01:35:00
8:55 PM,17.6,14.0,86,30.09,10.0,West,23.0,31.1,N/A,,Clear,280,2013-12-11 01:55:00
9:15 PM,17.6,14.0,86,30.08,10.0,West,24.2,32.2,N/A,,Clear,280,2013-12-11 02:15:00
9:35 PM,17.6,14.0,86,30.08,10.0,West,24.2,33.4,N/A,,Clear,280,2013-12-11 02:35:00
9:55 PM,19.4,12.2,74,30.09,10.0,WNW,24.2,34.5,N/A,,Clear,290,2013-12-11 02:55:00
10:15 PM,19.4,12.2,74,30.09,10.0,West,26.5,33.4,N/A,,Clear,280,2013-12-11 03:15:00
10:35 PM,17.6,12.2,79,30.09,10.0,WNW,21.9,33.4,N/A,,Clear,290,2013-12-11 03:35:00
10:55 PM,17.6,12.2,79,30.10,10.0,West,18.4,32.2,N/A,,Clear,280,2013-12-11 03:55:00
11:15 PM,17.6,12.2,79,30.10,10.0,West,19.6,25.3,N/A,,Clear,280,2013-12-11 04:15:00
11:35 PM,17.6,10.4,73,30.11,10.0,West,16.1,25.3,N/A,,Clear,280,2013-12-11 04:35:00
11:55 PM,17.6,10.4,73,30.11,10.0,West,19.6,24.2,N/A,,Clear,280,2013-12-11 04:55:00